Home > Weather > Seeb > Past weeks

Flag for Oman Past Weather in Seeb, Oman — Yesterday and Last 2 Weeks

Now
99 °F

Sunny.


Feels Like: 118 °F
Forecast: 93 / 101 °F
Wind: 12 mph from North

Location: International Airport

Current Time: Jul 2, 2016 at 11:36:22 AM

Latest Report: Jul 2, 2016 at 10:50 AM


Visibility: 10 mi

Pressure: 29.36 "Hg

Humidity: 53%

Dew Point: 79 °F

Location of SeebLocation

Past Weather in Seeb — Graph

°F

Seeb Temperature Yesterday

Maximum temperature yesterday: 102 °F (at 8:50 AM)
Minimum temperature yesterday: 90 °F (at 12:50 AM)
Average temperature yesterday: 96 °F

High & Low Weather Summary for the Past Weeks

 TemperatureHumidityPressure
High106 °F (Jun 27, 10:50 AM)89% (Jun 18, 4:50 AM)29.62 "Hg (Jun 18, 4:50 AM)
Low86 °F (Jun 27, 4:50 AM)16% (Jun 27, 8:50 AM)29.33 "Hg (Jul 1, 5:50 PM)
Average93 °F64%29.48 "Hg
* Reported Jun 17 9:50 AM — Jul 2 9:50 AM, Seeb, Weather by CustomWeather, © 2016

Note: Actual official high and low records may vary slightly from our data, if they occured in-between our weather recording intervals... More about our weather records

Advertising

Seeb Weather History for the Previous 24 Hours

Scroll right to see more
 ConditionsComfort  
Time TempWeatherWind HumidityBarometerVisibility
9:50 AM
Sat, Jul 2
102 °FClear.7 mph35%29.36 "Hg6 mi
8:50 AM102 °FClear.3 mph35%29.36 "Hg6 mi
7:50 AM100 °FClear.1 mph37%29.36 "Hg6 mi
6:50 AM95 °FPassing clouds.3 mph56%29.36 "HgN/A
5:50 AM90 °FSunny.No wind63%29.36 "Hg10 mi
4:50 AM91 °FClear.5 mph59%29.33 "Hg10 mi
3:50 AM91 °FClear.9 mph67%29.33 "Hg10 mi
2:50 AM97 °FPassing clouds.7 mph37%29.33 "HgN/A
1:50 AM95 °FClear.6 mph41%29.33 "Hg10 mi
12:50 AM93 °FClear.2 mph56%29.33 "Hg10 mi
11:50 PM
Fri, Jul 1
93 °FClear.1 mph59%29.36 "Hg10 mi
10:50 PM93 °FClear.2 mph71%29.36 "Hg10 mi
9:50 PM93 °FPassing clouds.No wind71%29.36 "HgN/A
8:50 PM93 °FClear.5 mph71%29.36 "Hg10 mi
7:50 PM93 °FClear.3 mph71%29.36 "Hg10 mi
6:50 PM95 °FSunny.6 mph60%29.33 "Hg10 mi
5:50 PM95 °FSunny.7 mph63%29.33 "Hg10 mi
4:50 PM99 °FSunny.10 mph44%29.36 "Hg10 mi
3:50 PM97 °FSunny.10 mph53%29.36 "Hg10 mi
2:50 PM95 °FSunny.13 mph71%29.36 "Hg10 mi
1:50 PM97 °FPassing clouds.10 mph56%29.39 "HgN/A
12:50 PM97 °FSunny.12 mph56%29.42 "Hg10 mi
11:50 AM99 °FSunny.12 mph50%29.42 "Hg10 mi
Weather by CustomWeather, © 2016

See weather overviewHow to use our weather pages